Meteo pe oră la Abazivka

Astăzi, 3 August, Marţi

Timp Temperatura Precipitaţii Vânt Presiune Umiditate
00:00 +23°C° 0 mm 2 m/s 745 mmHg 87%
01:00 +21°C° 0 mm 2 m/s 745 mmHg 88%
02:00 +21°C° 0 mm 3 m/s 745 mmHg 88%
03:00 +20°C° 0.1 mm 2 m/s 745 mmHg 89%
04:00 +20°C° 0.1 mm 2 m/s 745 mmHg 90%
05:00 +20°C° 0.1 mm 2 m/s 746 mmHg 90%
06:00 +21°C° 0 mm 2 m/s 746 mmHg 83%
07:00 +22°C° 0 mm 3 m/s 746 mmHg 76%
08:00 +24°C° 0 mm 3 m/s 747 mmHg 67%
09:00 +25°C° 0 mm 4 m/s 747 mmHg 59%
10:00 +26°C° 0 mm 4 m/s 747 mmHg 50%
11:00 +28°C° 0 mm 4 m/s 747 mmHg 42%
12:00 +28°C° 0 mm 4 m/s 747 mmHg 40%
13:00 +29°C° 0 mm 4 m/s 747 mmHg 38%
14:00 +29°C° 0 mm 4 m/s 747 mmHg 36%
15:00 +29°C° 0 mm 3 m/s 747 mmHg 36%
16:00 +29°C° 0 mm 3 m/s 747 mmHg 36%
17:00 +29°C° 0 mm 3 m/s 747 mmHg 36%
18:00 +27°C° 0 mm 3 m/s 747 mmHg 40%
19:00 +26°C° 0 mm 2 m/s 747 mmHg 43%
20:00 +24°C° 0 mm 2 m/s 748 mmHg 47%
21:00 +24°C° 0 mm 2 m/s 748 mmHg 48%
22:00 +23°C° 0 mm 2 m/s 748 mmHg 49%
23:00 +22°C° 0 mm 3 m/s 749 mmHg 50%

Mâine, 4 August, Miercuri

Timp Temperatura Precipitaţii Vânt Presiune Umiditate
00:00 +21°C° 0 mm 2 m/s 749 mmHg 52%
01:00 +21°C° 0 mm 2 m/s 749 mmHg 54%
02:00 +20°C° 0 mm 2 m/s 749 mmHg 56%
03:00 +19°C° 0 mm 2 m/s 749 mmHg 59%
04:00 +19°C° 0 mm 2 m/s 749 mmHg 61%
05:00 +18°C° 0 mm 2 m/s 750 mmHg 64%
06:00 +20°C° 0 mm 2 m/s 750 mmHg 57%
07:00 +22°C° 0 mm 3 m/s 750 mmHg 51%
08:00 +25°C° 0 mm 3 m/s 750 mmHg 44%
09:00 +27°C° 0 mm 2 m/s 750 mmHg 40%
10:00 +28°C° 0 mm 2 m/s 750 mmHg 36%
11:00 +29°C° 0 mm 2 m/s 750 mmHg 32%
12:00 +29°C° 0 mm 2 m/s 750 mmHg 30%
13:00 +30°C° 0 mm 2 m/s 750 mmHg 28%
14:00 +30°C° 0 mm 2 m/s 750 mmHg 27%
15:00 +30°C° 0 mm 2 m/s 750 mmHg 27%
16:00 +30°C° 0 mm 2 m/s 750 mmHg 28%
17:00 +30°C° 0 mm 2 m/s 750 mmHg 28%
18:00 +28°C° 0 mm 2 m/s 750 mmHg 32%
19:00 +26°C° 0 mm 2 m/s 750 mmHg 35%
20:00 +24°C° 0 mm 2 m/s 750 mmHg 39%
21:00 +23°C° 0 mm 2 m/s 750 mmHg 40%
22:00 +21°C° 0 mm 2 m/s 750 mmHg 41%
23:00 +21°C° 0 mm 3 m/s 750 mmHg 42%

Poimâine, 5 August, Joi

Timp Temperatura Precipitaţii Vânt Presiune Umiditate
00:00 +20°C° 0 mm 3 m/s 750 mmHg 42%
01:00 +20°C° 0 mm 3 m/s 750 mmHg 43%
02:00 +19°C° 0 mm 3 m/s 750 mmHg 43%
03:00 +19°C° 0 mm 3 m/s 749 mmHg 46%
04:00 +19°C° 0 mm 3 m/s 749 mmHg 48%
05:00 +19°C° 0 mm 3 m/s 749 mmHg 51%
06:00 +21°C° 0 mm 4 m/s 749 mmHg 47%
07:00 +23°C° 0 mm 4 m/s 749 mmHg 43%
08:00 +27°C° 0 mm 5 m/s 749 mmHg 39%
09:00 +28°C° 0 mm 5 m/s 749 mmHg 36%
10:00 +30°C° 0 mm 5 m/s 749 mmHg 34%
11:00 +32°C° 0 mm 5 m/s 748 mmHg 31%
12:00 +32°C° 0 mm 5 m/s 748 mmHg 32%
13:00 +32°C° 0 mm 4 m/s 748 mmHg 32%
14:00 +32°C° 0 mm 4 m/s 747 mmHg 33%
15:00 +30°C° 0 mm 4 m/s 747 mmHg 36%
16:00 +29°C° 0 mm 3 m/s 747 mmHg 39%
17:00 +28°C° 0 mm 3 m/s 747 mmHg 42%
18:00 +27°C° 0 mm 3 m/s 746 mmHg 44%
19:00 +26°C° 0 mm 3 m/s 746 mmHg 46%
20:00 +25°C° 0 mm 3 m/s 746 mmHg 48%
21:00 +24°C° 0 mm 3 m/s 746 mmHg 49%
22:00 +23°C° 0 mm 4 m/s 746 mmHg 49%
23:00 +22°C° 0 mm 4 m/s 745 mmHg 49%

6 August, Vineri

Timp Temperatura Precipitaţii Vânt Presiune Umiditate
00:00 +22°C° 0 mm 3 m/s 745 mmHg 50%
01:00 +21°C° 0 mm 3 m/s 745 mmHg 52%
02:00 +21°C° 0 mm 3 m/s 745 mmHg 53%
03:00 +21°C° 0 mm 3 m/s 745 mmHg 53%
04:00 +21°C° 0 mm 3 m/s 745 mmHg 53%
05:00 +21°C° 0 mm 3 m/s 745 mmHg 54%
06:00 +23°C° 0 mm 4 m/s 744 mmHg 47%
07:00 +27°C° 0 mm 5 m/s 744 mmHg 41%
08:00 +29°C° 0 mm 6 m/s 744 mmHg 35%
09:00 +32°C° 0 mm 6 m/s 743 mmHg 31%
10:00 +34°C° 0 mm 6 m/s 743 mmHg 28%
11:00 +36°C° 0 mm 6 m/s 743 mmHg 25%
12:00 +38°C° 0 mm 7 m/s 743 mmHg 25%
13:00 +39°C° 0 mm 7 m/s 742 mmHg 25%
14:00 +39°C° 0 mm 7 m/s 742 mmHg 26%
15:00 +38°C° 0 mm 6 m/s 742 mmHg 28%
16:00 +38°C° 0 mm 6 m/s 742 mmHg 30%
17:00 +36°C° 0 mm 5 m/s 741 mmHg 32%
18:00 +33°C° 0.5 mm 4 m/s 742 mmHg 42%
19:00 +29°C° 0.5 mm 3 m/s 742 mmHg 53%
20:00 +26°C° 0.5 mm 2 m/s 742 mmHg 63%
21:00 +25°C° 0.3 mm 2 m/s 742 mmHg 66%
22:00 +25°C° 0.3 mm 3 m/s 742 mmHg 69%
23:00 +23°C° 0.3 mm 4 m/s 742 mmHg 72%

7 August, Sâmbătă

Timp Temperatura Precipitaţii Vânt Presiune Umiditate
00:00 +23°C° 0.1 mm 4 m/s 741 mmHg 74%
01:00 +22°C° 0.1 mm 4 m/s 741 mmHg 75%
02:00 +21°C° 0.1 mm 3 m/s 741 mmHg 76%
03:00 +21°C° 0.2 mm 3 m/s 741 mmHg 76%
04:00 +21°C° 0.2 mm 2 m/s 740 mmHg 75%
05:00 +21°C° 0.2 mm 2 m/s 740 mmHg 75%
06:00 +23°C° 0.4 mm 2 m/s 740 mmHg 72%
07:00 +24°C° 0.4 mm 3 m/s 741 mmHg 70%
08:00 +25°C° 0.4 mm 4 m/s 741 mmHg 67%
09:00 +26°C° 0.4 mm 3 m/s 741 mmHg 61%
10:00 +28°C° 0.4 mm 3 m/s 741 mmHg 55%
11:00 +29°C° 0.4 mm 3 m/s 741 mmHg 49%
12:00 +31°C° 0 mm 2 m/s 741 mmHg 46%
13:00 +32°C° 0 mm 2 m/s 741 mmHg 43%
14:00 +33°C° 0 mm 1 m/s 741 mmHg 39%
15:00 +34°C° 0 mm 2 m/s 741 mmHg 40%
16:00 +34°C° 0 mm 2 m/s 741 mmHg 40%
17:00 +34°C° 0 mm 3 m/s 741 mmHg 40%
18:00 +30°C° 1.8 mm 3 m/s 741 mmHg 54%
19:00 +27°C° 1.8 mm 3 m/s 742 mmHg 68%
20:00 +23°C° 1.8 mm 4 m/s 742 mmHg 81%
21:00 +23°C° 0.6 mm 4 m/s 743 mmHg 84%
22:00 +22°C° 0.6 mm 4 m/s 743 mmHg 87%
23:00 +21°C° 0.6 mm 4 m/s 743 mmHg 89%

8 August, Duminică

Timp Temperatura Precipitaţii Vânt Presiune Umiditate
00:00 +21°C° 0.3 mm 4 m/s 743 mmHg 91%
01:00 +20°C° 0.3 mm 4 m/s 744 mmHg 93%
02:00 +20°C° 0.3 mm 4 m/s 744 mmHg 94%
03:00 +20°C° 0.1 mm 4 m/s 744 mmHg 94%
04:00 +20°C° 0.1 mm 4 m/s 745 mmHg 95%
05:00 +19°C° 0.1 mm 4 m/s 745 mmHg 95%
06:00 +21°C° 0 mm 5 m/s 745 mmHg 89%
07:00 +22°C° 0 mm 5 m/s 745 mmHg 83%
08:00 +23°C° 0 mm 6 m/s 746 mmHg 77%
09:00 +26°C° 0 mm 6 m/s 746 mmHg 69%
10:00 +27°C° 0 mm 6 m/s 746 mmHg 60%
11:00 +29°C° 0 mm 6 m/s 746 mmHg 52%
12:00 +30°C° 0 mm 6 m/s 746 mmHg 49%
13:00 +30°C° 0 mm 5 m/s 746 mmHg 45%
14:00 +32°C° 0 mm 5 m/s 747 mmHg 41%
15:00 +32°C° 0 mm 5 m/s 747 mmHg 41%
16:00 +32°C° 0 mm 5 m/s 747 mmHg 41%
17:00 +30°C° 0 mm 5 m/s 747 mmHg 41%
18:00 +28°C° 0 mm 5 m/s 747 mmHg 46%
19:00 +27°C° 0 mm 4 m/s 748 mmHg 52%
20:00 +25°C° 0 mm 3 m/s 748 mmHg 58%
21:00 +24°C° 0 mm 3 m/s 748 mmHg 63%
22:00 +22°C° 0 mm 3 m/s 748 mmHg 68%
23:00 +21°C° 0 mm 3 m/s 749 mmHg 73%
Arată mai mult

Formular de consimțământ

Meteoprog și furnizorii noștri de servicii pot stoca și accesa date personale, precum cookies, identificatori de dispozitiv sau alte tehnologii similare pe dispozitivul dumneavoastră și procesa astfel de date pentru a personaliza conținutul și reclamele, dar și pentru a oferi caracteristici de social media și pentru a analiza traficul.

  • Stocarea și/sau accesarea informațiilor pe dispozitivul dumneavoastră

    Cookies, identificatori de dispozitiv sau alte informații pot fi stocate sau accesate pe dispozitiv în scopurile indicate mai sus.

  • Reclame și conținut personalizat, evaluarea reclamelor și a conținutului, informații despre audiențe și dezvoltarea produselor

    Reclamele și conținutul pot fi personalizate pe baza unui profil. Pot fi adăugate date suplimentare pentru a personaliza mai bine reclamele și conținutul. Performanța reclamelor și conținutului poate fi măsurată. Pot fi obținute informații despre utilizatorii care au văzut reclamele și conținutul. Aceste date pot fi utilizate pentru a dezvolta sau îmbunătăți experiența utilizatorilor, sistemele și software-ul.

Dând clic pe ‘Sunt de acord’, permiteți utilizarea cookie-urilor menționate, a identificatorilor de dispozitiv, balizelor web sau altor tehnologii similare. Setările pot fi modificate din browser-ul dispozitivului dumneavoastră.

În anumite scopuri, interesele legitime pot prima asupra consimțământului. Puteți citi mai multe informații în acest sens în Politica privind Confidențialitatea Datelor și Cookie.